Year,Month,Day,Hour,Minute,Value (Times are PST for temperature in C)
2019,03,08,00,00,2.30
2019,03,08,00,01,2.20
2019,03,08,00,02,2.20
2019,03,08,00,03,2.10
2019,03,08,00,04,2.10
2019,03,08,00,05,2.10
2019,03,08,00,06,2.00
2019,03,08,00,07,2.00
2019,03,08,00,08,2.00
2019,03,08,00,09,2.00
2019,03,08,00,10,1.90
2019,03,08,00,11,1.90
2019,03,08,00,12,1.90
2019,03,08,00,13,1.80
2019,03,08,00,14,1.80
2019,03,08,00,15,1.80
2019,03,08,00,16,1.80
2019,03,08,00,17,1.70
2019,03,08,00,18,1.70
2019,03,08,00,19,1.70
2019,03,08,00,20,1.60
2019,03,08,00,21,1.60
2019,03,08,00,22,1.60
2019,03,08,00,23,1.60
2019,03,08,00,24,1.50
2019,03,08,00,25,1.50
2019,03,08,00,26,1.50
2019,03,08,00,27,1.50
2019,03,08,00,28,1.40
2019,03,08,00,29,1.40
2019,03,08,00,30,1.40
2019,03,08,00,31,1.30
2019,03,08,00,32,1.30
2019,03,08,00,33,1.30
2019,03,08,00,34,1.30
2019,03,08,00,35,1.20
2019,03,08,00,36,1.20
2019,03,08,00,37,1.20
2019,03,08,00,38,1.20
2019,03,08,00,39,1.20
2019,03,08,00,40,1.20
2019,03,08,00,41,1.20
2019,03,08,00,42,1.20
2019,03,08,00,43,1.20
2019,03,08,00,44,1.20
2019,03,08,00,45,1.20
2019,03,08,00,46,1.20
2019,03,08,00,47,1.10
2019,03,08,00,48,1.10
2019,03,08,00,49,1.10
2019,03,08,00,50,1.00
2019,03,08,00,51,0.90
2019,03,08,00,52,0.90
2019,03,08,00,53,0.90
2019,03,08,00,54,0.80
2019,03,08,00,55,0.80
2019,03,08,00,56,0.80
2019,03,08,00,57,0.80
2019,03,08,00,58,0.70
2019,03,08,00,59,0.70
2019,03,08,01,00,0.70
2019,03,08,01,01,0.70
2019,03,08,01,02,0.70
2019,03,08,01,03,0.70
2019,03,08,01,04,0.70
2019,03,08,01,05,0.70
2019,03,08,01,06,0.70
2019,03,08,01,07,0.60
2019,03,08,01,08,0.60
2019,03,08,01,09,0.60
2019,03,08,01,10,0.60
2019,03,08,01,11,0.60
2019,03,08,01,12,0.60
2019,03,08,01,13,0.60
2019,03,08,01,14,0.60
2019,03,08,01,15,0.60
2019,03,08,01,16,0.60
2019,03,08,01,17,0.60
2019,03,08,01,18,0.60
2019,03,08,01,19,0.50
2019,03,08,01,20,0.50
2019,03,08,01,21,0.50
2019,03,08,01,22,0.50
2019,03,08,01,23,0.40
2019,03,08,01,24,0.40
2019,03,08,01,25,0.40
2019,03,08,01,26,0.40
2019,03,08,01,27,0.40
2019,03,08,01,28,0.40
2019,03,08,01,29,0.30
2019,03,08,01,30,0.30
2019,03,08,01,31,0.30
2019,03,08,01,32,0.30
2019,03,08,01,33,0.30
2019,03,08,01,34,0.30
2019,03,08,01,35,0.30
2019,03,08,01,36,0.30
2019,03,08,01,37,0.30
2019,03,08,01,38,0.30
2019,03,08,01,39,0.30
2019,03,08,01,40,0.30
2019,03,08,01,41,0.30
2019,03,08,01,42,0.30
2019,03,08,01,43,0.30
2019,03,08,01,44,0.30
2019,03,08,01,45,0.30
2019,03,08,01,46,0.30
2019,03,08,01,47,0.30
2019,03,08,01,48,0.30
2019,03,08,01,49,0.30
2019,03,08,01,50,0.30
2019,03,08,01,51,0.30
2019,03,08,01,52,0.30
2019,03,08,01,53,0.30
2019,03,08,01,54,0.20
2019,03,08,01,55,0.20
2019,03,08,01,56,0.20
2019,03,08,01,57,0.20
2019,03,08,01,58,0.30
2019,03,08,01,59,0.30
2019,03,08,02,00,0.30
2019,03,08,02,01,0.30
2019,03,08,02,02,0.30
2019,03,08,02,03,0.30
2019,03,08,02,04,0.30
2019,03,08,02,05,0.30
2019,03,08,02,06,0.40
2019,03,08,02,07,0.40
2019,03,08,02,08,0.30
2019,03,08,02,09,0.30
2019,03,08,02,10,0.30
2019,03,08,02,11,0.30
2019,03,08,02,12,0.30
2019,03,08,02,13,0.30
2019,03,08,02,14,0.30
2019,03,08,02,15,0.30
2019,03,08,02,16,0.30
2019,03,08,02,17,0.30
2019,03,08,02,18,0.30
2019,03,08,02,19,0.30
2019,03,08,02,20,0.30
2019,03,08,02,21,0.20
2019,03,08,02,22,0.20
2019,03,08,02,23,0.20
2019,03,08,02,24,0.20
2019,03,08,02,25,0.20
2019,03,08,02,26,0.20
2019,03,08,02,27,0.20
2019,03,08,02,28,0.20
2019,03,08,02,29,0.20
2019,03,08,02,30,0.10
2019,03,08,02,31,0.10
2019,03,08,02,32,0.10
2019,03,08,02,33,0.10
2019,03,08,02,34,0.10
2019,03,08,02,35,0.10
2019,03,08,02,36,0.10
2019,03,08,02,37,0.10
2019,03,08,02,38,0.10
2019,03,08,02,39,0.10
2019,03,08,02,40,0.00
2019,03,08,02,41,0.00
2019,03,08,02,42,0.00
2019,03,08,02,43,0.00
2019,03,08,02,44,-0.10
2019,03,08,02,45,-0.10
2019,03,08,02,46,-0.10
2019,03,08,02,47,-0.10
2019,03,08,02,48,-0.10
2019,03,08,02,49,-0.10
2019,03,08,02,50,-0.10
2019,03,08,02,51,-0.10
2019,03,08,02,52,-0.10
2019,03,08,02,53,-0.10
2019,03,08,02,54,-0.10
2019,03,08,02,55,-0.10
2019,03,08,02,56,-0.10
2019,03,08,02,57,-0.10
2019,03,08,02,58,-0.10
2019,03,08,02,59,0.00
2019,03,08,03,00,0.00
2019,03,08,03,01,0.00
2019,03,08,03,02,0.00
2019,03,08,03,03,0.00
2019,03,08,03,04,0.00
2019,03,08,03,05,0.00
2019,03,08,03,06,0.00
2019,03,08,03,07,0.00
2019,03,08,03,08,0.00
2019,03,08,03,09,-0.10
2019,03,08,03,10,-0.10
2019,03,08,03,11,-0.10
2019,03,08,03,12,-0.10
2019,03,08,03,13,-0.10
2019,03,08,03,14,-0.10
2019,03,08,03,15,-0.10
2019,03,08,03,16,-0.10
2019,03,08,03,17,-0.10
2019,03,08,03,18,0.00
2019,03,08,03,19,0.00
2019,03,08,03,20,0.00
2019,03,08,03,21,0.00
2019,03,08,03,22,0.10
2019,03,08,03,23,0.10
2019,03,08,03,24,0.10
2019,03,08,03,25,0.10
2019,03,08,03,26,0.10
2019,03,08,03,27,0.10
2019,03,08,03,28,0.10
2019,03,08,03,29,0.10
2019,03,08,03,30,0.10
2019,03,08,03,31,0.10
2019,03,08,03,32,0.10
2019,03,08,03,33,0.10
2019,03,08,03,34,0.10
2019,03,08,03,35,0.10
2019,03,08,03,36,0.10
2019,03,08,03,37,0.10
2019,03,08,03,38,0.10
2019,03,08,03,39,0.10
2019,03,08,03,40,0.10
2019,03,08,03,41,0.10
2019,03,08,03,42,0.10
2019,03,08,03,43,0.10
2019,03,08,03,44,0.10
2019,03,08,03,45,0.10
2019,03,08,03,46,0.10
2019,03,08,03,47,0.10
2019,03,08,03,48,0.10
2019,03,08,03,49,0.00
2019,03,08,03,50,0.00
2019,03,08,03,51,0.00
2019,03,08,03,52,0.00
2019,03,08,03,53,0.00
2019,03,08,03,54,0.00
2019,03,08,03,55,0.00
2019,03,08,03,56,0.00
2019,03,08,03,57,0.00
2019,03,08,03,58,0.00
2019,03,08,03,59,0.00
2019,03,08,07,39,2.00
2019,03,08,07,40,2.00
2019,03,08,07,41,2.00
2019,03,08,07,42,2.00
2019,03,08,07,43,2.00
2019,03,08,07,44,2.00
2019,03,08,07,45,2.10
2019,03,08,07,46,2.00
2019,03,08,07,47,2.10
2019,03,08,07,48,2.10
2019,03,08,07,49,2.10
2019,03,08,07,50,2.10
2019,03,08,07,51,2.10
2019,03,08,07,52,2.10
2019,03,08,07,53,2.10
2019,03,08,07,54,2.10
2019,03,08,07,55,2.20
2019,03,08,07,56,2.20
2019,03,08,07,57,2.20
2019,03,08,07,58,2.20
2019,03,08,07,59,2.20
2019,03,08,08,00,2.20
2019,03,08,08,01,2.20
2019,03,08,08,02,2.20
2019,03,08,08,03,2.30
2019,03,08,08,04,2.30
2019,03,08,08,05,2.30
2019,03,08,08,06,2.30
2019,03,08,08,07,2.30
2019,03,08,08,08,2.30
2019,03,08,08,09,2.30
2019,03,08,08,10,2.30
2019,03,08,08,11,2.40
2019,03,08,08,12,2.40
2019,03,08,08,13,2.40
2019,03,08,08,14,2.40
2019,03,08,08,15,2.40
2019,03,08,08,16,2.40
2019,03,08,08,17,2.40
2019,03,08,08,18,2.40
2019,03,08,08,19,2.50
2019,03,08,08,20,2.50
2019,03,08,08,21,2.50
2019,03,08,08,22,2.50
2019,03,08,08,23,2.50
2019,03,08,08,24,2.60
2019,03,08,08,25,2.60
2019,03,08,08,26,2.60
2019,03,08,08,27,2.60
2019,03,08,08,28,2.60
2019,03,08,08,29,2.60
2019,03,08,08,30,2.60
2019,03,08,08,31,2.70
2019,03,08,08,32,2.70
2019,03,08,08,33,2.70
2019,03,08,08,34,2.70
2019,03,08,08,35,2.70
2019,03,08,08,36,2.80
2019,03,08,08,37,2.80
2019,03,08,08,38,2.80
2019,03,08,08,39,2.80
2019,03,08,08,40,2.80
2019,03,08,08,41,2.80
2019,03,08,08,42,2.90
2019,03,08,08,43,2.90
2019,03,08,08,44,2.90
2019,03,08,08,45,2.90
2019,03,08,08,46,2.90
2019,03,08,08,47,2.90
2019,03,08,08,48,3.00
2019,03,08,08,49,3.00
2019,03,08,08,50,3.00
2019,03,08,08,51,3.10
2019,03,08,08,52,3.10
2019,03,08,08,53,3.10
2019,03,08,08,54,3.10
2019,03,08,08,55,3.10
2019,03,08,08,56,3.20
2019,03,08,08,57,3.20
2019,03,08,08,58,3.20
2019,03,08,08,59,3.20
2019,03,08,09,00,3.20
2019,03,08,09,01,3.20
2019,03,08,09,02,3.20
2019,03,08,09,03,3.30
2019,03,08,09,04,3.30
2019,03,08,09,05,3.30
2019,03,08,09,06,3.30
2019,03,08,09,07,3.30
2019,03,08,09,08,3.30
2019,03,08,09,09,3.30
2019,03,08,09,10,3.40
2019,03,08,09,11,3.40
2019,03,08,09,12,3.40
2019,03,08,09,13,3.40
2019,03,08,09,14,3.40
2019,03,08,09,15,3.40
2019,03,08,09,16,3.50
2019,03,08,09,17,3.50
2019,03,08,09,18,3.50
2019,03,08,09,19,3.50
2019,03,08,09,20,3.50
2019,03,08,09,21,3.50
2019,03,08,09,22,3.50
2019,03,08,09,23,3.50
2019,03,08,09,24,3.50
2019,03,08,09,25,3.60
2019,03,08,09,26,3.60
2019,03,08,09,27,3.60
2019,03,08,09,28,3.60
2019,03,08,09,29,3.60
2019,03,08,09,30,3.50
2019,03,08,09,31,3.50
2019,03,08,09,32,3.60
2019,03,08,09,33,3.60
2019,03,08,09,34,3.60
2019,03,08,09,35,3.60
2019,03,08,09,36,3.60
2019,03,08,09,37,3.60
2019,03,08,09,38,3.60
2019,03,08,09,39,3.60
2019,03,08,09,40,3.60
2019,03,08,09,41,3.60
2019,03,08,09,42,3.60
2019,03,08,09,43,3.60
2019,03,08,09,44,3.60
2019,03,08,09,45,3.60
2019,03,08,09,46,3.60
2019,03,08,09,47,3.60
2019,03,08,09,48,3.60
2019,03,08,09,49,3.60
2019,03,08,09,50,3.60
2019,03,08,09,51,3.60
2019,03,08,09,52,3.60
2019,03,08,09,53,3.60
2019,03,08,09,54,3.60
2019,03,08,09,55,3.60
2019,03,08,09,56,3.60
2019,03,08,09,57,3.60
2019,03,08,09,58,3.60
2019,03,08,09,59,3.60
2019,03,08,10,00,3.60
2019,03,08,10,01,3.60
2019,03,08,10,02,3.60
2019,03,08,10,03,3.60
2019,03,08,10,04,3.70
2019,03,08,10,05,3.70
2019,03,08,10,06,3.70
2019,03,08,10,07,3.70
2019,03,08,10,08,3.70
2019,03,08,10,09,3.70
2019,03,08,10,10,3.70
2019,03,08,10,11,3.70
2019,03,08,10,12,3.70
2019,03,08,10,13,3.80
2019,03,08,10,14,3.80
2019,03,08,10,15,3.80
2019,03,08,10,16,3.80
2019,03,08,10,17,3.90
2019,03,08,10,18,3.90
2019,03,08,10,19,3.90
2019,03,08,10,20,3.90
2019,03,08,10,21,3.90
2019,03,08,10,22,3.90
2019,03,08,10,23,3.90
2019,03,08,10,24,3.90
2019,03,08,10,25,3.90
2019,03,08,10,26,3.90
2019,03,08,10,27,3.90
2019,03,08,10,28,4.00
2019,03,08,10,29,4.00
2019,03,08,10,30,4.00
2019,03,08,10,31,4.10
2019,03,08,10,32,4.10
2019,03,08,10,33,4.10
2019,03,08,10,34,4.10
2019,03,08,10,35,4.10
2019,03,08,10,36,4.10
2019,03,08,10,37,4.20
2019,03,08,10,38,4.20
2019,03,08,10,39,4.20
2019,03,08,10,40,4.20
2019,03,08,10,41,4.30
2019,03,08,10,42,4.30
2019,03,08,10,43,4.30
2019,03,08,10,44,4.30
2019,03,08,10,45,4.30
2019,03,08,10,46,4.30
2019,03,08,10,47,4.30
2019,03,08,10,48,4.30
2019,03,08,10,49,4.30
2019,03,08,10,50,4.30
2019,03,08,10,51,4.30
2019,03,08,10,52,4.40
2019,03,08,10,53,4.40
2019,03,08,10,54,4.40
2019,03,08,10,55,4.40
2019,03,08,10,56,4.50
2019,03,08,10,57,4.50
2019,03,08,10,58,4.50
2019,03,08,10,59,4.60
2019,03,08,11,00,4.60
2019,03,08,11,01,4.60
2019,03,08,11,02,4.60
2019,03,08,11,03,4.60
2019,03,08,11,04,4.60
2019,03,08,11,05,4.60
2019,03,08,11,06,4.60
2019,03,08,11,07,4.60
2019,03,08,11,08,4.60
2019,03,08,11,09,4.60
2019,03,08,11,10,4.60
2019,03,08,11,11,4.60
2019,03,08,11,12,4.60
2019,03,08,11,13,4.60
2019,03,08,11,14,4.50
2019,03,08,11,15,4.50
2019,03,08,11,16,4.40
2019,03,08,11,17,4.30
2019,03,08,11,18,4.30
2019,03,08,11,19,4.20
2019,03,08,11,20,4.20
2019,03,08,11,21,4.20
2019,03,08,11,22,4.20
2019,03,08,11,23,4.20
2019,03,08,11,24,4.10
2019,03,08,11,25,4.10
2019,03,08,11,26,4.10
2019,03,08,11,27,4.10
2019,03,08,11,28,4.10
2019,03,08,11,29,4.10
2019,03,08,11,30,4.10
2019,03,08,11,31,4.10
2019,03,08,11,32,4.10
2019,03,08,11,33,4.10
2019,03,08,11,34,4.10
2019,03,08,11,35,4.10
2019,03,08,11,36,4.10
2019,03,08,11,37,4.00
2019,03,08,11,38,4.00
2019,03,08,11,39,4.00
2019,03,08,11,40,4.00
2019,03,08,11,41,4.00
2019,03,08,11,42,4.00
2019,03,08,11,43,4.00
2019,03,08,11,44,4.00
2019,03,08,11,45,4.00
2019,03,08,11,46,4.00
2019,03,08,11,47,4.00
2019,03,08,11,48,3.90
2019,03,08,11,49,3.90
2019,03,08,11,50,3.90
2019,03,08,11,51,3.90
2019,03,08,11,52,3.90
2019,03,08,11,53,3.90
2019,03,08,11,54,3.90
2019,03,08,11,55,3.80
2019,03,08,11,56,3.80
2019,03,08,11,57,3.80
2019,03,08,11,58,3.80
2019,03,08,11,59,3.80
2019,03,08,12,00,3.80
2019,03,08,12,01,3.80
2019,03,08,12,02,3.80
2019,03,08,12,03,3.80
2019,03,08,12,04,3.80
2019,03,08,12,05,3.80
2019,03,08,12,06,3.80
2019,03,08,12,07,3.80
2019,03,08,12,08,3.80
2019,03,08,12,09,3.80
2019,03,08,12,10,3.80
2019,03,08,12,11,3.80
2019,03,08,12,12,3.80
2019,03,08,12,13,3.80
2019,03,08,12,14,3.80
2019,03,08,12,15,3.80
2019,03,08,12,16,3.80
2019,03,08,12,17,3.80
2019,03,08,12,18,3.90
2019,03,08,12,19,3.90
2019,03,08,12,20,3.90
2019,03,08,12,21,3.90
2019,03,08,12,22,3.90
2019,03,08,12,23,4.00
2019,03,08,12,24,4.10
2019,03,08,12,25,4.10
2019,03,08,12,26,4.20
2019,03,08,12,27,4.30
2019,03,08,12,28,4.30
2019,03,08,12,29,4.40
2019,03,08,12,30,4.40
2019,03,08,12,31,4.40
2019,03,08,12,32,4.40
2019,03,08,12,33,4.50
2019,03,08,12,34,4.50
2019,03,08,12,35,4.60
2019,03,08,12,36,4.70
2019,03,08,12,37,4.70
2019,03,08,12,38,4.80
2019,03,08,12,39,4.80
2019,03,08,12,40,4.80
2019,03,08,12,41,4.80
2019,03,08,12,42,4.90
2019,03,08,12,43,4.90
2019,03,08,12,44,5.00
2019,03,08,12,45,5.00
2019,03,08,12,46,5.10
2019,03,08,12,47,5.10
2019,03,08,12,48,5.20
2019,03,08,12,49,5.20
2019,03,08,12,50,5.20
2019,03,08,12,51,5.20
2019,03,08,12,52,5.20
2019,03,08,12,53,5.20
2019,03,08,12,54,5.20
2019,03,08,12,55,5.20
2019,03,08,12,56,5.20
2019,03,08,12,57,5.20
2019,03,08,12,58,5.30
2019,03,08,12,59,5.30
2019,03,08,13,00,5.30
2019,03,08,13,01,5.40
2019,03,08,13,02,5.40
2019,03,08,13,03,5.40
2019,03,08,13,04,5.50
2019,03,08,13,05,5.50
2019,03,08,13,06,5.40
2019,03,08,13,07,5.40
2019,03,08,13,08,5.40
2019,03,08,13,09,5.40
2019,03,08,13,10,5.30
2019,03,08,13,11,5.40
2019,03,08,13,12,5.40
2019,03,08,13,13,5.40
2019,03,08,13,14,5.40
2019,03,08,13,15,5.40
2019,03,08,13,16,5.40
2019,03,08,13,17,5.40
2019,03,08,13,18,5.30
2019,03,08,13,19,5.30
2019,03,08,13,20,5.30
2019,03,08,13,21,5.30
2019,03,08,13,22,5.30
2019,03,08,13,23,5.30
2019,03,08,13,24,5.30
2019,03,08,13,25,5.20
2019,03,08,13,26,5.20
2019,03,08,13,27,5.20
2019,03,08,13,28,5.20
2019,03,08,13,29,5.10
2019,03,08,13,30,5.20
2019,03,08,13,31,5.20
2019,03,08,13,32,5.20
2019,03,08,13,33,5.20
2019,03,08,13,34,5.20
2019,03,08,13,35,5.20
2019,03,08,13,36,5.20
2019,03,08,13,37,5.30
2019,03,08,13,38,5.30
2019,03,08,13,39,5.30
2019,03,08,13,40,5.30
2019,03,08,13,41,5.30
2019,03,08,13,42,5.40
2019,03,08,13,43,5.40
2019,03,08,13,44,5.40
2019,03,08,13,45,5.40
2019,03,08,13,46,5.40
2019,03,08,13,47,5.50
2019,03,08,13,48,5.50
2019,03,08,13,49,5.50
2019,03,08,13,50,5.50
2019,03,08,13,51,5.50
2019,03,08,13,52,5.50
2019,03,08,13,53,5.50
2019,03,08,13,54,5.60
2019,03,08,13,55,5.60
2019,03,08,13,56,5.60
2019,03,08,13,57,5.60
2019,03,08,13,58,5.60
2019,03,08,13,59,5.70
2019,03,08,14,00,5.70
2019,03,08,14,01,5.70
2019,03,08,14,02,5.70
2019,03,08,14,03,5.70
2019,03,08,14,04,5.70
2019,03,08,14,05,5.70
2019,03,08,14,06,5.70
2019,03,08,14,07,5.70
2019,03,08,14,08,5.80
2019,03,08,14,09,5.80
2019,03,08,14,10,5.80
2019,03,08,14,11,5.80
2019,03,08,14,12,5.80
2019,03,08,14,13,5.80
2019,03,08,14,14,5.80
2019,03,08,14,15,5.80
2019,03,08,14,16,5.80
2019,03,08,14,17,5.80
2019,03,08,14,18,5.80
2019,03,08,14,19,5.80
2019,03,08,14,20,5.90
2019,03,08,14,21,5.90
2019,03,08,14,22,5.90
2019,03,08,14,23,5.80
2019,03,08,14,24,5.80
2019,03,08,14,25,5.80
2019,03,08,14,26,5.80
2019,03,08,14,27,5.80
2019,03,08,14,28,5.70
2019,03,08,14,29,5.70
2019,03,08,14,30,5.60
2019,03,08,14,31,5.60
2019,03,08,14,32,5.60
2019,03,08,14,33,5.60
2019,03,08,14,34,5.60
2019,03,08,14,35,5.70
2019,03,08,14,36,5.80
2019,03,08,14,37,5.80
2019,03,08,14,38,5.80
2019,03,08,14,39,5.90
2019,03,08,14,40,5.90
2019,03,08,14,41,5.90
2019,03,08,14,42,5.90
2019,03,08,14,43,5.90
2019,03,08,14,44,5.90
2019,03,08,14,45,5.90
2019,03,08,14,46,5.90
2019,03,08,14,47,5.90
2019,03,08,14,48,5.80
2019,03,08,14,49,5.80
2019,03,08,14,50,5.80
2019,03,08,14,51,5.90
2019,03,08,14,52,5.90
2019,03,08,14,53,5.90
2019,03,08,14,54,6.00
2019,03,08,14,55,6.00
2019,03,08,14,56,6.10
2019,03,08,14,57,6.00
2019,03,08,14,58,6.10
2019,03,08,14,59,6.00
2019,03,08,15,00,6.10
2019,03,08,15,01,6.10
2019,03,08,15,02,6.10
2019,03,08,15,03,6.10
2019,03,08,15,04,6.10
2019,03,08,15,05,6.20
2019,03,08,15,06,6.20
2019,03,08,15,07,6.20
2019,03,08,15,08,6.20
2019,03,08,15,09,6.10
2019,03,08,15,10,6.10
2019,03,08,15,11,6.10
2019,03,08,15,12,6.10
2019,03,08,15,13,6.20
2019,03,08,15,14,6.10
2019,03,08,15,15,6.10
2019,03,08,15,16,6.10
2019,03,08,15,17,6.10
2019,03,08,15,18,6.10
2019,03,08,15,19,6.10
2019,03,08,15,20,6.10
2019,03,08,15,21,6.10
2019,03,08,15,22,6.10
2019,03,08,15,23,6.10
2019,03,08,15,24,6.10
2019,03,08,15,25,6.20
2019,03,08,15,26,6.20
2019,03,08,15,27,6.20
2019,03,08,15,28,6.20
2019,03,08,15,29,6.30
2019,03,08,15,30,6.30
2019,03,08,15,31,6.40
2019,03,08,15,32,6.40
2019,03,08,15,33,6.50
2019,03,08,15,34,6.50
2019,03,08,15,35,6.50
2019,03,08,15,36,6.50
2019,03,08,15,37,6.50
2019,03,08,15,38,6.50
2019,03,08,15,39,6.60
2019,03,08,15,40,6.50
2019,03,08,15,41,6.50
2019,03,08,15,42,6.50
2019,03,08,15,43,6.50
2019,03,08,15,44,6.50
2019,03,08,15,45,6.50
2019,03,08,15,46,6.50
2019,03,08,15,47,6.50
2019,03,08,15,48,6.50
2019,03,08,15,49,6.50
2019,03,08,15,50,6.50
2019,03,08,15,51,6.50
2019,03,08,15,52,6.50
2019,03,08,15,53,6.40
2019,03,08,15,54,6.40
2019,03,08,15,55,6.40
2019,03,08,15,56,6.40
2019,03,08,15,57,6.40
2019,03,08,15,58,6.30
2019,03,08,15,59,6.30
2019,03,08,16,00,6.30
2019,03,08,16,01,6.20
2019,03,08,16,02,6.20
2019,03,08,16,03,6.20
2019,03,08,16,04,6.20
2019,03,08,16,05,6.20
2019,03,08,16,06,6.20
2019,03,08,16,07,6.20
2019,03,08,16,08,6.20
2019,03,08,16,09,6.20
2019,03,08,16,10,6.20
2019,03,08,16,11,6.20
2019,03,08,16,12,6.20
2019,03,08,16,13,6.20
2019,03,08,16,14,6.20
2019,03,08,16,15,6.20
2019,03,08,16,16,6.20
2019,03,08,16,17,6.20
2019,03,08,16,18,6.20
2019,03,08,16,19,6.20
2019,03,08,16,20,6.20
2019,03,08,16,21,6.20
2019,03,08,16,22,6.20
2019,03,08,16,23,6.20
2019,03,08,16,24,6.20
2019,03,08,16,25,6.30
2019,03,08,16,26,6.30
2019,03,08,16,27,6.30
2019,03,08,16,28,6.40
2019,03,08,16,29,6.40
2019,03,08,16,30,6.40
2019,03,08,16,31,6.40
2019,03,08,16,32,6.40
2019,03,08,16,33,6.40
2019,03,08,16,34,6.40
2019,03,08,16,35,6.40
2019,03,08,16,36,6.40
2019,03,08,16,37,6.40
2019,03,08,16,38,6.50
2019,03,08,16,39,6.60
2019,03,08,16,40,6.60
2019,03,08,16,41,6.60
2019,03,08,16,42,6.60
2019,03,08,16,43,6.60
2019,03,08,16,44,6.60
2019,03,08,16,45,6.60
2019,03,08,16,46,6.60
2019,03,08,16,47,6.60
2019,03,08,16,48,6.60
2019,03,08,16,49,6.60
2019,03,08,16,50,6.60
2019,03,08,16,51,6.60
2019,03,08,16,52,6.60
2019,03,08,16,53,6.60
2019,03,08,16,54,6.60
2019,03,08,16,55,6.60
2019,03,08,16,56,6.60
2019,03,08,16,57,6.70
2019,03,08,16,58,6.70
2019,03,08,16,59,6.70
2019,03,08,17,00,6.70
2019,03,08,17,01,6.70
2019,03,08,17,02,6.70
2019,03,08,17,03,6.80
2019,03,08,17,04,6.80
2019,03,08,17,05,6.80
2019,03,08,17,06,6.80
2019,03,08,17,07,6.70
2019,03,08,17,08,6.70
2019,03,08,17,09,6.70
2019,03,08,17,10,6.70
2019,03,08,17,11,6.60
2019,03,08,17,12,6.60
2019,03,08,17,13,6.60
2019,03,08,17,14,6.60
2019,03,08,17,15,6.60
2019,03,08,17,16,6.60
2019,03,08,17,17,6.60
2019,03,08,17,18,6.60
2019,03,08,17,19,6.60
2019,03,08,17,20,6.60
2019,03,08,17,21,6.60
2019,03,08,17,22,6.50
2019,03,08,17,23,6.50
2019,03,08,17,24,6.50
2019,03,08,17,25,6.50
2019,03,08,17,26,6.50
2019,03,08,17,27,6.50
2019,03,08,17,28,6.40
2019,03,08,17,29,6.40
2019,03,08,17,30,6.50
2019,03,08,17,31,6.50
2019,03,08,17,32,6.50
2019,03,08,17,33,6.50
2019,03,08,17,34,6.40
2019,03,08,17,35,6.40
2019,03,08,17,36,6.30
2019,03,08,17,37,6.30
2019,03,08,17,38,6.20
2019,03,08,17,39,6.20
2019,03,08,17,40,6.20
2019,03,08,17,41,6.20
2019,03,08,17,42,6.10
2019,03,08,17,43,6.10
2019,03,08,17,44,6.10
2019,03,08,17,45,6.00
2019,03,08,17,46,6.00
2019,03,08,17,47,6.00
2019,03,08,17,48,6.00
2019,03,08,17,49,6.00
2019,03,08,17,50,5.90
2019,03,08,17,51,5.90
2019,03,08,17,52,5.90
2019,03,08,17,53,5.90
2019,03,08,17,54,5.90
2019,03,08,17,55,5.90
2019,03,08,17,56,5.90
2019,03,08,17,57,5.80
2019,03,08,17,58,5.80
2019,03,08,17,59,5.80
2019,03,08,18,00,5.80
2019,03,08,18,01,5.80
2019,03,08,18,02,5.80
2019,03,08,18,03,5.80
2019,03,08,18,04,5.80
2019,03,08,18,05,5.80
2019,03,08,18,06,5.80
2019,03,08,18,07,5.70
2019,03,08,18,08,5.70
2019,03,08,18,09,5.70
2019,03,08,18,10,5.70
2019,03,08,18,11,5.70
2019,03,08,18,12,5.70
2019,03,08,18,13,5.70
2019,03,08,18,14,5.70
2019,03,08,18,15,5.60
2019,03,08,18,16,5.60
2019,03,08,18,17,5.60
2019,03,08,18,18,5.60
2019,03,08,18,19,5.60
2019,03,08,18,20,5.60
2019,03,08,18,21,5.60
2019,03,08,18,22,5.60
2019,03,08,18,23,5.50
2019,03,08,18,24,5.50
2019,03,08,18,25,5.50
2019,03,08,18,26,5.50
2019,03,08,18,27,5.50
2019,03,08,18,28,5.50
2019,03,08,18,29,5.50
2019,03,08,18,30,5.40
2019,03,08,18,31,5.40
2019,03,08,18,32,5.40
2019,03,08,18,33,5.40
2019,03,08,18,34,5.40
2019,03,08,18,35,5.40
2019,03,08,18,36,5.40
2019,03,08,18,37,5.40
2019,03,08,18,38,5.40
2019,03,08,18,39,5.40
2019,03,08,18,40,5.40
2019,03,08,18,41,5.30
2019,03,08,18,42,5.30
2019,03,08,18,43,5.30
2019,03,08,18,44,5.30
2019,03,08,18,45,5.30
2019,03,08,18,46,5.30
2019,03,08,18,47,5.30
2019,03,08,18,48,5.30
2019,03,08,18,49,5.30
2019,03,08,18,50,5.30
2019,03,08,18,51,5.20
2019,03,08,18,52,5.20
2019,03,08,18,53,5.20
2019,03,08,18,54,5.20
2019,03,08,18,55,5.20
2019,03,08,18,56,5.20
2019,03,08,18,57,5.20
2019,03,08,18,58,5.20
2019,03,08,18,59,5.20
2019,03,08,19,00,5.20
2019,03,08,19,01,5.20
2019,03,08,19,02,5.20
2019,03,08,19,03,5.20
2019,03,08,19,04,5.20
2019,03,08,19,05,5.20
2019,03,08,19,06,5.20
2019,03,08,19,07,5.10
2019,03,08,19,08,5.10
2019,03,08,19,09,5.10
2019,03,08,19,10,5.00
2019,03,08,19,11,5.00
2019,03,08,19,12,5.00
2019,03,08,19,13,5.00
2019,03,08,19,14,5.00
2019,03,08,19,15,5.00
2019,03,08,19,16,5.00
2019,03,08,19,17,4.90
2019,03,08,19,18,4.90
2019,03,08,19,19,4.90
2019,03,08,19,20,4.90
2019,03,08,19,21,4.90
2019,03,08,19,22,4.90
2019,03,08,19,23,4.90
2019,03,08,19,24,4.80
2019,03,08,19,25,4.80
2019,03,08,19,26,4.80
2019,03,08,19,27,4.70
2019,03,08,19,28,4.70
2019,03,08,19,29,4.70
2019,03,08,19,30,4.60
2019,03,08,19,31,4.60
2019,03,08,19,32,4.60
2019,03,08,19,33,4.60
2019,03,08,19,34,4.60
2019,03,08,19,35,4.60
2019,03,08,19,36,4.50
2019,03,08,19,37,4.50
2019,03,08,19,38,4.40
2019,03,08,19,39,4.40
2019,03,08,19,40,4.30
2019,03,08,19,41,4.30
2019,03,08,19,42,4.30
2019,03,08,19,43,4.20
2019,03,08,19,44,4.20
2019,03,08,19,45,4.10
2019,03,08,19,46,4.10
2019,03,08,19,47,4.10
2019,03,08,19,48,4.10
2019,03,08,19,49,4.00
2019,03,08,19,50,4.00
2019,03,08,19,51,3.90
2019,03,08,19,52,3.90
2019,03,08,19,53,3.90
2019,03,08,19,54,3.80
2019,03,08,19,55,3.80
2019,03,08,19,56,3.80
2019,03,08,19,57,3.80
2019,03,08,19,58,3.70
2019,03,08,19,59,3.70
2019,03,08,20,00,3.70
2019,03,08,20,01,3.70
2019,03,08,20,02,3.70
2019,03,08,20,03,3.60
2019,03,08,20,04,3.60
2019,03,08,20,05,3.60
2019,03,08,20,06,3.60
2019,03,08,20,07,3.50
2019,03,08,20,08,3.50
2019,03,08,20,09,3.50
2019,03,08,20,10,3.40
2019,03,08,20,11,3.40
2019,03,08,20,12,3.40
2019,03,08,20,13,3.40
2019,03,08,20,14,3.40
2019,03,08,20,15,3.40
2019,03,08,20,16,3.40
2019,03,08,20,17,3.30
2019,03,08,20,18,3.30
2019,03,08,20,19,3.30
2019,03,08,20,20,3.20
2019,03,08,20,21,3.20
2019,03,08,20,22,3.20
2019,03,08,20,23,3.20
2019,03,08,20,24,3.10
2019,03,08,20,25,3.10
2019,03,08,20,26,3.10
2019,03,08,20,27,3.00
2019,03,08,20,28,3.00
2019,03,08,20,29,3.00
2019,03,08,20,30,2.90
2019,03,08,20,31,2.90
2019,03,08,20,32,2.90
2019,03,08,20,33,2.90
2019,03,08,20,34,2.80
2019,03,08,20,35,2.80
2019,03,08,20,36,2.80
2019,03,08,20,37,2.80
2019,03,08,20,38,2.80
2019,03,08,20,39,2.80
2019,03,08,20,40,2.80
2019,03,08,20,41,2.70
2019,03,08,20,42,2.70
2019,03,08,20,43,2.70
2019,03,08,20,44,2.70
2019,03,08,20,45,2.70
2019,03,08,20,46,2.70
2019,03,08,20,47,2.70
2019,03,08,20,48,2.70
2019,03,08,20,49,2.70
2019,03,08,20,50,2.60
2019,03,08,20,51,2.60
2019,03,08,20,52,2.60
2019,03,08,20,53,2.60
2019,03,08,20,54,2.60
2019,03,08,20,55,2.50
2019,03,08,20,56,2.50
2019,03,08,20,57,2.50
2019,03,08,20,58,2.40
2019,03,08,20,59,2.40
2019,03,08,21,00,2.40
2019,03,08,21,01,2.40
2019,03,08,21,02,2.30
2019,03,08,21,03,2.30
2019,03,08,21,04,2.30
2019,03,08,21,05,2.30
2019,03,08,21,06,2.20
2019,03,08,21,07,2.20
2019,03,08,21,08,2.20
2019,03,08,21,09,2.20
2019,03,08,21,10,2.20
2019,03,08,21,11,2.10
2019,03,08,21,12,2.10
2019,03,08,21,13,2.00
2019,03,08,21,14,2.00
2019,03,08,21,15,2.00
2019,03,08,21,16,1.90
2019,03,08,21,17,1.90
2019,03,08,21,18,1.90
2019,03,08,21,19,1.90
2019,03,08,21,20,1.90
2019,03,08,21,21,1.80
2019,03,08,21,22,1.80
2019,03,08,21,23,1.80
2019,03,08,21,24,1.80
2019,03,08,21,25,1.80
2019,03,08,21,26,1.80
2019,03,08,21,27,1.80
2019,03,08,21,28,1.80
2019,03,08,21,29,1.80
2019,03,08,21,30,1.80
2019,03,08,21,31,1.80
2019,03,08,21,32,1.80
2019,03,08,21,33,1.80
2019,03,08,21,34,1.80
2019,03,08,21,35,1.70
2019,03,08,21,36,1.70
2019,03,08,21,37,1.70
2019,03,08,21,38,1.70
2019,03,08,21,39,1.70
2019,03,08,21,40,1.70
2019,03,08,21,41,1.70
2019,03,08,21,42,1.60
2019,03,08,21,43,1.60
2019,03,08,21,44,1.60